Погода в Дашаве

Украина / Львовская область     49°15′36″N   24°00′35″E
темп.,
°C
ветер,
м/с
пор.,
м/с
влажн.,
%
обл.,
%
осадки,
мм/ч
давл.,
гПа
погр.,
м
6 мая, чт
чт600:00+8зсз81292100 1.8 1006800
03:00+5з499184 5.8 1008326
06:00+7зсз61184100 0.0 1010750
09:00+8зсз710709 0.0 10131011
12:00+12зсз58495 0.0 10131854
15:00+14зюз6844100 0.0 10122576
18:00+13зюз585474 0.1 10112250
21:00+8юз4768100 0.3 1013136
7 мая, пт
пт700:00+6ю337360 0.0 101233
03:00+5юв3575100 0.0 101280
06:00+7ююв3667100 0.0 1009117
09:00+8юв3677100 0.3 1007142
12:00+12зюз41074100 0.0 10071060
15:00+15з586082 0.0 10051629
18:00+13зюз5874100 0.3 1006953
21:00+10зсз4883100 0.8 1008239
8 мая, сб
сб800:00+7зсз81380100 0.3 10121103
03:00+5зсз71378100 0.3 10151161
06:00+4зсз6117197 0.0 10171160
09:00+4з61070100 0.0 10191287
12:00+6сз5968100 0.1 10201384
15:00+8сз696298 0.1 10211433
18:00+10сз58555 0.0 10211541
21:00+5з22781 0.0 102212
9 мая, вс
вс900:00+3юз33804 0.0 102432
03:00+3юз337922 0.0 102430
06:00+3ююз2280100 0.0 102514
09:00+9ююв226468 0.0 1025315
12:00+15ююз254319 0.0 10241992
15:00+17юз343870 0.0 10232022
18:00+18ююз144219 0.0 10221813
21:00+10юв411725 0.0 1023239
10 мая, пн
пн1000:00+7юв378219 0.0 1023118
03:00+6юв33865 0.0 102350
06:00+5юв33855 0.0 102341
09:00+11юв45645 0.0 1022265
12:00+17вюв67520 0.0 1022679
15:00+20вюв67500 0.0 1020888
18:00+19вюв711620 0.0 1019683
21:00+13юв613700 0.0 1020367